Location: Chandolas
(44.4033°N, 4.2533°E)
Time: 12:59:20
(UTC+00:00)

Lacrosse 5 rocket - Pass Details

Date: 15 November 2019
Orbit: 461 x 637 km, 57.0° (Epoch: 14 December)

Event Time Altitude Azimuth Distance (km) Brightness Sun altitude
Exits shadow 05:21:29 - 339° (NNW) 1,670 3.5 -13.8°
Reaches altitude 10° 05:21:41 10° 342° (NNW) 1,627 3.4 -13.8°
Maximum altitude 05:23:29 13° 12° (NNE) 1,433 3.4 -13.5°
Drops below altitude 10° 05:25:17 10° 42° (NE) 1,614 4.1 -13.2°
Sets 05:28:22 0° 71° (ENE) 2,488 5.7 -12.6°
